Pensacola, FL

8:45 PM CDT on October 22, 2017 (GMT -0500)
Pensacola Regional

Weather History for KPNS - April, 2012

Change the Weather History Date:

Monday, April 16, 2012

  Actual Average Record
Temperature  
Mean Temperature 75 °F 67 °F  
Max Temperature 82 °F 76 °F 85 °F (1972)
Min Temperature 68 °F 58 °F 42 °F (1962)
Degree Days  
Heating Degree Days 0 2  
Month to date heating degree days 1 40  
Since 1 July heating degree days 907 1524  
Cooling Degree Days 10 3  
Month to date cooling degree days 91 39  
Year to date cooling degree days 296 86  
Growing Degree Days 26 (Base 50)    
Moisture  
Dew Point 69 °F    
Average Humidity 80    
Maximum Humidity 90    
Minimum Humidity 69    
Precipitation  
Precipitation T in 0.14 in 2.32 in (1880)
Month to date precipitation 0.37 2.46  
Year to date precipitation 12.56 17.96  
Sea Level Pressure  
Sea Level Pressure 30.14 in    
Wind  
Wind Speed 10 mph (SE)    
Max Wind Speed 18 mph    
Max Gust Speed 24 mph    
Visibility 10 miles    
Events      
T = Trace of Precipitation, MM = Missing Value Source: NWS Daily Summary

Daily Weather History Graph

Daily Weather History Graph

Search for Another Location

Airport or City:

Trip Planner

Search our weather history database for the weather conditions in past years. The results will help you decide how hot, cold, wet, or windy it might be!

Date:

Astronomy

Apr. 16, 2012 Rise Set
Actual Time 6:19 AM CDT 7:17 PM CDT
Civil Twilight 5:55 AM CDT 7:42 PM CDT
Nautical Twilight 5:25 AM CDT 8:11 PM CDT
Astronomical Twilight 4:55 AM CDT 8:41 PM CDT
Moon 3:30 AM CDT (4/16) 3:27 PM CDT (4/16)
Length of Visible Light 13h 47m
Length of Day
12h 57m
Waning Crescent, 19% of the Moon is Illuminated
Apr 16
Waning Crescent
Apr 21
New
Apr 29
First Quarter
May 5
Full
May 12
Last Quarter

Hourly Weather History & Observations

Time (CDT) Temp. Heat Index Dew Point Humidity Pressure Visibility Wind Dir Wind Speed Gust Speed Precip Events Conditions
12:53 AM 73.9 °F - 68.0 °F 82% 30.09 in 10.0 mi SE 15.0 mph 21.9 mph N/A   Overcast
1:53 AM 73.9 °F - 68.0 °F 82% 30.08 in 10.0 mi SE 11.5 mph - N/A   Overcast
2:53 AM 73.9 °F - 68.0 °F 82% 30.07 in 10.0 mi SSE 9.2 mph - N/A   Overcast
3:53 AM 73.0 °F - 68.0 °F 84% 30.07 in 10.0 mi SSE 8.1 mph - 0.00 in   Overcast
4:53 AM 73.0 °F - 69.1 °F 87% 30.07 in 10.0 mi SE 8.1 mph - 0.00 in   Overcast
5:53 AM 73.9 °F - 69.1 °F 85% 30.10 in 10.0 mi SE 9.2 mph - N/A   Overcast
6:53 AM 73.9 °F - 69.1 °F 85% 30.12 in 10.0 mi SE 10.4 mph - N/A   Overcast
7:53 AM 75.0 °F - 69.1 °F 82% 30.14 in 10.0 mi SE 13.8 mph - N/A   Mostly Cloudy
8:53 AM 78.1 °F - 69.1 °F 74% 30.17 in 10.0 mi SSE 11.5 mph - N/A   Mostly Cloudy
9:43 AM 78.8 °F - 69.8 °F 74% 30.18 in 10.0 mi SSE 13.8 mph - N/A   Mostly Cloudy
9:53 AM 79.0 °F - 69.1 °F 72% 30.19 in 10.0 mi SSE 13.8 mph - N/A   Mostly Cloudy
10:53 AM 80.1 °F 82.9 °F 69.1 °F 69% 30.19 in 10.0 mi SSE 13.8 mph 19.6 mph N/A   Mostly Cloudy
11:53 AM 81.0 °F 84.1 °F 69.1 °F 67% 30.19 in 10.0 mi SE 16.1 mph - N/A   Mostly Cloudy
12:53 PM 80.1 °F 82.9 °F 69.1 °F 69% 30.18 in 10.0 mi SE 15.0 mph 18.4 mph N/A   Mostly Cloudy
1:53 PM 81.0 °F 84.1 °F 69.1 °F 67% 30.16 in 10.0 mi SSE 15.0 mph - N/A   Mostly Cloudy
2:53 PM 80.1 °F 82.9 °F 69.1 °F 69% 30.14 in 10.0 mi SE 13.8 mph - N/A   Mostly Cloudy
3:01 PM 80.6 °F 83.9 °F 69.8 °F 70% 30.14 in 10.0 mi SE 13.8 mph - N/A   Mostly Cloudy
3:53 PM 80.1 °F 82.9 °F 69.1 °F 69% 30.14 in 10.0 mi SE 12.7 mph - N/A   Mostly Cloudy
4:00 PM 78.8 °F - 69.8 °F 74% 30.13 in 10.0 mi SE 13.8 mph 20.7 mph N/A   Scattered Clouds
4:53 PM 77.0 °F - 69.1 °F 76% 30.12 in 10.0 mi SSE 15.0 mph - N/A   Scattered Clouds
5:53 PM 77.0 °F - 66.9 °F 71% 30.13 in 10.0 mi SSE 13.8 mph 19.6 mph N/A   Scattered Clouds
6:53 PM 75.0 °F - 66.9 °F 76% 30.13 in 10.0 mi SSE 8.1 mph - N/A   Clear
7:53 PM 73.0 °F - 68.0 °F 84% 30.15 in 10.0 mi SSE 8.1 mph - N/A   Mostly Cloudy
8:53 PM 73.0 °F - 68.0 °F 84% 30.17 in 10.0 mi SSE 6.9 mph - N/A   Scattered Clouds
9:53 PM 72.0 °F - 68.0 °F 87% 30.17 in 10.0 mi SE 5.8 mph - N/A   Clear
10:53 PM 71.1 °F - 68.0 °F 90% 30.16 in 10.0 mi Calm Calm - N/A   Mostly Cloudy
11:53 PM 70.0 °F - 66.9 °F 90% 30.14 in 9.0 mi Calm Calm - N/A   Clear